Regional Weather Roundup
Issued by NWS

Home | Current Version | Previous Version | Text Only | Print | Product List | Glossary Off
Versions: 1 2 3 4 5 6 7 8 9 10 11 12 13 14 15 16 17 18 19 20 21 22 23 24 25 26 27 28 29 30 31 32 33 34 35 36 37 38 39 40 41 42 43 44 45 46 47 48 49 50

000
ASUS43 KDMX 291607
RWRIA

WEATHER ROUNDUP FOR IOWA
NATIONAL WEATHER SERVICE DES MOINES IA
1000 AM CST THU JAN 29 2015

NOTE: "FAIR" INDICATES FEW OR NO CLOUDS BELOW 12,000 FEET WITH NO
SIGNIFICANT WEATHER AND/OR OBSTRUCTIONS TO VISIBILITY.

* - THESE STATIONS ARE NOT NWS STATIONS...THUS NOT UNDER NWS
QUALITY CONTROL.  THEY ALSO DO NOT REPORT WEATHER SUCH
AS PRECIPITATION OR FOG.

IAZ001>003-012>014-020>022-031>034-043>046-291700-
   NORTHWEST IOWA

CITY           SKY/WX    TMP DP  RH WIND       PRES   REMARKS
CARROLL *      CLOUDY    32  27  80 N29G38    30.27R WCI  18
CHEROKEE *     CLOUDY    32  28  86 NW18      30.32R WCI  20
DENISON *      CLOUDY    34  27  75 N25G37    30.30R WCI  21
LE MARS *      CLOUDY    34  27  75 NW17      30.36R WCI  23
ORANGE CITY *  CLOUDY    34  27  75 NW20      30.33R WCI  22
SHELDON *      CLOUDY    32  28  86 NW21G29   30.31R WCI  20
SIOUX CITY     CLOUDY    34  26  72 NW22G29   30.37R WCI  22
SPENCER        CLOUDY    32  24  72 N32G41    30.29R WCI  17
STORM LAKE *   CLOUDY    32  27  80 NW22G30   30.29R WCI  19
$$

IAZ055>058-069>071-079>083-090>094-291700-
   SOUTHWEST IOWA

CITY           SKY/WX    TMP DP  RH WIND       PRES   REMARKS
ATLANTIC *     CLOUDY    34  27  75 N26G36    30.29R WCI  21
AUDUBON *      CLOUDY    34  27  75 NW21G33   30.29R WCI  22
CLARINDA *     CLOUDY    37  28  70 NW18G26   30.32R WCI  27
COUNCIL BLFS * CLOUDY    36  28  75 N24G33    30.32R WCI  24
CRESTON *      CLOUDY    34  30  86 N28G35    30.24R WCI  20
HARLAN  *      CLOUDY    34  30  86 N33G44    30.33R WCI  19
LAMONI         CLOUDY    35  30  82 NW16G26   30.22R WCI  25
RED OAK *      CLOUDY    36  27  69 N24G37    30.31R WCI  24
SHENANDOAH *   CLOUDY    37  28  70 N20G33    30.33R WCI  27
$$

IAZ047>049-059>061-072>074-084-291700-
   CENTRAL IOWA

CITY           SKY/WX    TMP DP  RH WIND       PRES   REMARKS
AMES           CLOUDY    32  26  78 NW26G38   30.21R WCI  18
ANKENY *       CLOUDY    34  28  80 N18G33    30.22R WCI  23
CHARITON *     LGT RAIN  34  30  86 NW23G33   30.19R WCI  22
DES MOINES     CLOUDY    35  27  72 N15G25    30.22R WCI  25
GRINNELL*      CLOUDY    32  30  93 NW29G37   30.16R WCI  18
KNOXVILLE *    CLOUDY    34  28  80 NW25G32   30.18R WCI  21
MARSHALLTOWN   CLOUDY    32  28  85 NW28G38   30.16R WCI  18
PELLA *        CLOUDY    34  30  86 NW25G35   30.19R WCI  21
PERRY *          N/A     34  28  80 NW25G38   30.25R WCI  21
$$

IAZ004>006-015-016-023>025-035-036-291700-
   NORTH CENTRAL IOWA

CITY           SKY/WX    TMP DP  RH WIND       PRES   REMARKS
ALGONA *       CLOUDY    30  27  86 N26G43    30.24R WCI  16
CLARION *      MIX PCPN  30  28  93 NW24G41   30.21R WCI  16
ESTHERVILLE    CLOUDY    29  24  82 NW29G38   30.27R WCI  14
FORT DODGE *   CLOUDY    30  23  74 NW16G28   30.25R WCI  19
MASON CITY     CLOUDY    29  24  82 NW32G43   30.18R WCI  13
FOREST CITY *  CLOUDY    30  27  86 NW25G36   30.19R WCI  16
IOWA FALLS *   CLOUDY    32  28  86 NW26G37   30.18R WCI  18
$$

IAZ007>011-017>019-026>030-037>042-050>054-066-291700-
   NORTHEAST IOWA

CITY           SKY/WX    TMP DP  RH WIND       PRES   REMARKS
CEDAR RAPIDS   CLOUDY    34  32  92 NW18      30.07R WCI  23
CHARLES CITY * CLOUDY    32  30  93 NW21G32   30.13R WCI  20
CLINTON *      CLOUDY    34  28  80 NW17      30.04R WCI  23
DECORAH *      CLOUDY    34  28  80 NW20G36   30.05R WCI  22
DUBUQUE        CLOUDY    33  29  85 NW22G30   30.01R WCI  21
MONTICELLO *   MIX PCPN  36  34  93 NW18G24   30.05R WCI  25
OELWEIN *      CLOUDY    34  32  93 NW24G35   30.08R WCI  21
WATERLOO       CLOUDY    33  29  85 NW23G31   30.11R WCI  21
$$

IAZ064-065-067-068-078-291700-
   EAST CENTRAL IOWA

CITY           SKY/WX    TMP DP  RH WIND       PRES   REMARKS
DAVENPORT      CLOUDY    34  28  79 NW16      30.03R WCI  24
IOWA CITY      CLOUDY    35  32  88 NW17G28   30.10R FOG     WCI  25
MT. PLEASANT * CLOUDY    36  32  87 NW16G24   30.11R WCI  26
MUSCATINE *    CLOUDY    37  32  81 NW15G21   30.09R WCI  28
QUAD CITIES    CLOUDY    35  29  78 NW15      30.03R WCI  25
$$

IAZ062-063-075>077-085>089-095>099-291700-
   SOUTHEAST IOWA

CITY           SKY/WX    TMP DP  RH WIND       PRES   REMARKS
BURLINGTON     CLOUDY    37  32  82 NW15G24   30.08R WCI  28
FAIRFIELD *    CLOUDY    36  30  80 NW22      30.13R WCI  24
FORT MADISON * CLOUDY    36  34  93 NW16G24   30.11R WCI  26
KEOKUK *       CLOUDY    37  32  81 NW15G26   30.11R WCI  28
OSKALOOSA *    CLOUDY    34  30  86 NW16G26   30.16R WCI  23
CENTERVILLE *  CLOUDY    36  32  87 NW18G29   30.19R WCI  25
OTTUMWA        CLOUDY    35  29  78 NW20G28   30.16R WCI  24
WASHINGTON *   CLOUDY    36  36 100 NW23      30.11R FOG     WCI  24
$$

ABBREVIATIONS USED IN REMARKS
   TC - TEMPERATURES IN CELSIUS
  WCI - WIND CHILL INDEX
   HX - HEAT INDEX
  VSB - VISIBILITY
$$



USA.gov is the U.S. government's official web portal to all federal, state and local government web resources and services.